Location: Quebec
(46.8000°N, 71.2500°W)
Time: 18:48:36
(UTC-05:00)

Envisat - Pass Details

Date: 10 October 2017
Orbit: 764 x 766 km, 98.2° (Epoch: 15 December)

Event Time Altitude Azimuth Distance (km) Brightness Sun altitude
Exits shadow 21:07:47 38° 242° (WSW) 1,153 4.1 -31.1°
Maximum altitude 21:08:29 40° 263° (W) 1,114 4.1 -31.2°
Drops below altitude 10° 21:13:17 10° 333° (NNW) 2,315 6.1 -32.0°
Sets 21:15:45 0° 340° (NNW) 3,247 6.9 -32.3°
